Location: Chaumontel
(49.1247°N, 2.4324°E)
Time: 15:54:42
(UTC+00:00)

Cosmos 1954 Rocket - Pass Details

Date: 03 February 2023
Orbit: 751 x 780 km, 74.0° (Epoch: 25 March)

Event Time Altitude Azimuth Distance (km) Brightness Sun altitude
Rises 18:10:34 0° 198° (SSW) 3,230 7.6 -13.4°
Reaches altitude 10° 18:12:56 10° 197° (SSW) 2,304 6.8 -13.8°
Maximum altitude 18:18:10 81° 111° (ESE) 780 3.9 -14.6°
Drops below altitude 10° 18:23:23 10° 25° (NNE) 2,301 6.2 -15.5°
Enters shadow 18:24:37 - 25° (NNE) 2,781 6.6 -15.7°
